�����͌���@�Y���u�C�̈ړ���,,,,,,,,,,,,
�@,Time,Time int.,,Lat.,,Long.,,Distance,,Direction,Speed,
Date(yy/mm/dd),(hh:mm),(hour),(min),(deg),(min),(deg),(min),(miles),(meter),(deg),(m/s),(knots)
2004/8/30,9:05,,,36,47.694 ,137,4.170 ,,,,,
2004/8/30,9:10,0,5,36,47.706 ,137,4.218 ,0.05 ,91.63 ,76.0 ,0.31 ,0.59 
2004/8/30,9:15,0,5,36,47.724 ,137,4.272 ,0.06 ,105.42 ,71.6 ,0.35 ,0.68 
2004/8/30,9:20,0,5,36,47.730 ,137,4.302 ,0.03 ,56.66 ,78.7 ,0.19 ,0.37 
2004/8/30,9:25,0,5,36,47.742 ,137,4.326 ,0.03 ,49.69 ,63.4 ,0.17 ,0.32 
2004/8/30,9:30,0,5,36,47.754 ,137,4.356 ,0.03 ,59.84 ,68.2 ,0.20 ,0.39 
2004/8/30,9:35,0,5,36,47.766 ,137,4.386 ,0.03 ,59.84 ,68.2 ,0.20 ,0.39 
2004/8/30,9:40,0,5,36,47.760 ,137,4.428 ,0.04 ,78.57 ,98.1 ,0.26 ,0.51 
2004/8/30,9:45,0,5,36,47.766 ,137,4.446 ,0.02 ,35.14 ,71.6 ,0.12 ,0.23 
2004/8/30,9:50,0,5,36,47.778 ,137,4.464 ,0.02 ,40.06 ,56.3 ,0.13 ,0.26 
2004/8/30,9:55,0,5,36,47.772 ,137,4.488 ,0.02 ,45.82 ,104.0 ,0.15 ,0.30 
2004/8/30,10:00,0,5,36,47.772 ,137,4.500 ,0.01 ,22.22 ,90.0 ,0.07 ,0.14 
2004/8/30,10:05,0,5,36,47.766 ,137,4.518 ,0.02 ,35.14 ,108.4 ,0.12 ,0.23 
2004/8/30,10:10,0,5,36,47.766 ,137,4.530 ,0.01 ,22.22 ,90.0 ,0.07 ,0.14 
2004/8/30,10:15,0,5,36,47.772 ,137,4.548 ,0.02 ,35.14 ,71.6 ,0.12 ,0.23 
2004/8/30,10:25,0,10,36,47.754 ,137,4.590 ,0.05 ,84.63 ,113.2 ,0.14 ,0.27 
2004/8/30,10:35,0,10,36,47.748 ,137,4.626 ,0.04 ,67.59 ,99.5 ,0.11 ,0.22 
2004/8/30,10:40,0,5,36,47.748 ,137,4.662 ,0.04 ,66.67 ,90.0 ,0.22 ,0.43 
,,,,,,,,,,,,
,,,,,,,,,,,,
�A,Time,Time int.,,Lat.,,Long.,,Distance,,Direction,Speed,
Date(yy/mm/dd),(hh:mm),(hour),(min),(deg),(min),(deg),(min),(miles),(meter),(deg),(m/s),(knots)
2004/8/30,11:40,,,36,47.724 ,137,4.152 ,,,,,
2004/8/30,11:45,0,5,36,47.742 ,137,4.176 ,0.03 ,55.56 ,53.1 ,0.19 ,0.36 
2004/8/30,11:50,0,5,36,47.766 ,137,4.188 ,0.03 ,49.69 ,26.6 ,0.17 ,0.32 
2004/8/30,11:55,0,5,36,47.796 ,137,4.212 ,0.04 ,71.15 ,38.7 ,0.24 ,0.46 
2004/8/30,12:00,0,5,36,47.802 ,137,4.224 ,0.01 ,24.85 ,63.4 ,0.08 ,0.16 
2004/8/30,12:05,0,5,36,47.820 ,137,4.248 ,0.03 ,55.56 ,53.1 ,0.19 ,0.36 
2004/8/30,12:10,0,5,36,47.826 ,137,4.260 ,0.01 ,24.85 ,63.4 ,0.08 ,0.16 
2004/8/30,12:15,0,5,36,47.832 ,137,4.266 ,0.01 ,15.71 ,45.0 ,0.05 ,0.10 
2004/8/30,12:20,0,5,36,47.850 ,137,4.272 ,0.02 ,35.14 ,18.4 ,0.12 ,0.23 
2004/8/30,12:25,0,5,36,47.862 ,137,4.266 ,0.01 ,24.85 ,333.4 ,0.08 ,0.16 
2004/8/30,12:35,0,10,36,47.874 ,137,4.266 ,0.01 ,22.22 ,0.0 ,0.04 ,0.07 
2004/8/30,12:40,0,5,36,47.886 ,137,4.260 ,0.01 ,24.85 ,333.4 ,0.08 ,0.16 
2004/8/30,12:45,0,5,36,47.898 ,137,4.260 ,0.01 ,22.22 ,0.0 ,0.07 ,0.14 
2004/8/30,12:50,0,5,36,47.928 ,137,4.248 ,0.03 ,59.84 ,338.2 ,0.20 ,0.39 
2004/8/30,12:55,0,5,36,47.946 ,137,4.254 ,0.02 ,35.14 ,18.4 ,0.12 ,0.23 
2004/8/30,13:00,0,5,36,47.958 ,137,4.242 ,0.02 ,31.43 ,315.0 ,0.10 ,0.20 
2004/8/30,13:05,0,5,36,47.964 ,137,4.218 ,0.02 ,45.82 ,284.0 ,0.15 ,0.30 
2004/8/30,13:10,0,5,36,47.976 ,137,4.206 ,0.02 ,31.43 ,315.0 ,0.10 ,0.20 
2004/8/30,13:20,0,10,36,47.982 ,137,4.200 ,0.01 ,15.71 ,315.0 ,0.03 ,0.05 
2004/8/30,13:25,0,5,36,47.988 ,137,4.188 ,0.01 ,24.85 ,296.6 ,0.08 ,0.16 
2004/8/30,13:30,0,5,36,47.982 ,137,4.170 ,0.02 ,35.14 ,251.6 ,0.12 ,0.23 
2004/8/30,13:40,0,10,36,47.970 ,137,4.164 ,0.01 ,24.85 ,206.6 ,0.04 ,0.08 
2004/8/30,13:45,0,5,36,47.964 ,137,4.152 ,0.01 ,24.85 ,243.4 ,0.08 ,0.16 
2004/8/30,13:50,0,5,36,47.958 ,137,4.140 ,0.01 ,24.85 ,243.4 ,0.08 ,0.16 
2004/8/30,13:55,0,5,36,47.946 ,137,4.128 ,0.02 ,31.43 ,225.0 ,0.10 ,0.20 
2004/8/30,14:00,0,5,36,47.940 ,137,4.128 ,0.01 ,11.11 ,180.0 ,0.04 ,0.07 
2004/8/30,14:05,0,5,36,47.928 ,137,4.110 ,0.02 ,40.06 ,236.3 ,0.13 ,0.26 
2004/8/30,14:10,0,5,36,47.922 ,137,4.092 ,0.02 ,35.14 ,251.6 ,0.12 ,0.23 
,,,,,,,,,,,,
,,,,,,,,,,,,
�B,Time,Time int.,,Lat.,,Long.,,Distance,,Direction,Speed,
Date(yy/mm/dd),(hh:mm),(hour),(min),(deg),(min),(deg),(min),(miles),(meter),(deg),(m/s),(knots)
2004/8/30,9:05,,,36,47.634 ,137,4.272 ,,,,,
2004/8/30,9:15,0,10,36,47.628 ,137,4.332 ,0.06 ,111.67 ,95.7 ,0.19 ,0.36 
2004/8/30,9:25,0,10,36,47.640 ,137,4.410 ,0.08 ,146.16 ,81.3 ,0.24 ,0.47 
2004/8/30,9:30,0,5,36,47.640 ,137,4.446 ,0.04 ,66.67 ,90.0 ,0.22 ,0.43 
2004/8/30,9:35,0,5,36,47.640 ,137,4.476 ,0.03 ,55.56 ,90.0 ,0.19 ,0.36 
2004/8/30,9:40,0,5,36,47.652 ,137,4.494 ,0.02 ,40.06 ,56.3 ,0.13 ,0.26 
2004/8/30,9:45,0,5,36,47.658 ,137,4.506 ,0.01 ,24.85 ,63.4 ,0.08 ,0.16 
2004/8/30,9:50,0,5,36,47.658 ,137,4.542 ,0.04 ,66.67 ,90.0 ,0.22 ,0.43 
2004/8/30,9:55,0,5,36,47.664 ,137,4.560 ,0.02 ,35.14 ,71.6 ,0.12 ,0.23 
2004/8/30,10:05,0,10,36,47.670 ,137,4.602 ,0.04 ,78.57 ,81.9 ,0.13 ,0.25 
2004/8/30,10:10,0,5,36,47.676 ,137,4.620 ,0.02 ,35.14 ,71.6 ,0.12 ,0.23 
2004/8/30,10:15,0,5,36,47.694 ,137,4.638 ,0.03 ,47.14 ,45.0 ,0.16 ,0.31 
2004/8/30,10:20,0,5,36,47.694 ,137,4.662 ,0.02 ,44.45 ,90.0 ,0.15 ,0.29 
2004/8/30,10:25,0,5,36,47.706 ,137,4.680 ,0.02 ,40.06 ,56.3 ,0.13 ,0.26 
2004/8/30,10:30,0,5,36,47.718 ,137,4.704 ,0.03 ,49.69 ,63.4 ,0.17 ,0.32 
2004/8/30,10:35,0,5,36,47.718 ,137,4.734 ,0.03 ,55.56 ,90.0 ,0.19 ,0.36 
2004/8/30,10:45,0,10,36,47.748 ,137,4.794 ,0.07 ,124.24 ,63.4 ,0.21 ,0.40 
2004/8/30,10:50,0,5,36,47.754 ,137,4.824 ,0.03 ,56.66 ,78.7 ,0.19 ,0.37 
2004/8/30,10:55,0,5,36,47.766 ,137,4.854 ,0.03 ,59.84 ,68.2 ,0.20 ,0.39 
2004/8/30,11:00,0,5,36,47.778 ,137,4.872 ,0.02 ,40.06 ,56.3 ,0.13 ,0.26 
2004/8/30,11:05,0,5,36,47.778 ,137,4.902 ,0.03 ,55.56 ,90.0 ,0.19 ,0.36 
2004/8/30,11:10,0,5,36,47.790 ,137,4.926 ,0.03 ,49.69 ,63.4 ,0.17 ,0.32 
2004/8/30,11:20,0,10,36,47.796 ,137,4.974 ,0.05 ,89.59 ,82.9 ,0.15 ,0.29 
2004/8/30,11:25,0,5,36,47.802 ,137,4.992 ,0.02 ,35.14 ,71.6 ,0.12 ,0.23 
,,,,,,,,,,,,
,,,,,,,,,,,,
�C,Time,Time int.,,Lat.,,Long.,,Distance,,Direction,Speed,
Date(yy/mm/dd),(hh:mm),(hour),(min),(deg),(min),(deg),(min),(miles),(meter),(deg),(m/s),(knots)
2004/8/30,12:30,,,36,47.742 ,137,4.098 ,,,,,
2004/8/30,12:35,0,5,36,47.748 ,137,4.116 ,0.02 ,35.14 ,71.6 ,0.12 ,0.23 
2004/8/30,12:40,0,5,36,47.754 ,137,4.128 ,0.01 ,24.85 ,63.4 ,0.08 ,0.16 
2004/8/30,12:45,0,5,36,47.760 ,137,4.170 ,0.04 ,78.57 ,81.9 ,0.26 ,0.51 
2004/8/30,12:50,0,5,36,47.796 ,137,4.230 ,0.07 ,129.59 ,59.0 ,0.43 ,0.84 
2004/8/30,12:55,0,5,36,47.808 ,137,4.242 ,0.02 ,31.43 ,45.0 ,0.10 ,0.20 
2004/8/30,13:10,0,15,36,47.826 ,137,4.260 ,0.03 ,47.14 ,45.0 ,0.05 ,0.10 
2004/8/30,13:15,0,5,36,47.838 ,137,4.290 ,0.03 ,59.84 ,68.2 ,0.20 ,0.39 
2004/8/30,13:20,0,5,36,47.856 ,137,4.308 ,0.03 ,47.14 ,45.0 ,0.16 ,0.31 
2004/8/30,13:25,0,5,36,47.886 ,137,4.320 ,0.03 ,59.84 ,21.8 ,0.20 ,0.39 
2004/8/30,13:35,0,10,36,47.904 ,137,4.332 ,0.02 ,40.06 ,33.7 ,0.07 ,0.13 
2004/8/30,13:45,0,10,36,47.916 ,137,4.338 ,0.01 ,24.85 ,26.6 ,0.04 ,0.08 
2004/8/30,13:55,0,10,36,47.940 ,137,4.314 ,0.03 ,62.86 ,315.0 ,0.10 ,0.20 
2004/8/30,14:00,0,5,36,47.946 ,137,4.308 ,0.01 ,15.71 ,315.0 ,0.05 ,0.10 
2004/8/30,14:05,0,5,36,47.958 ,137,4.278 ,0.03 ,59.84 ,291.8 ,0.20 ,0.39 
2004/8/30,14:10,0,5,36,47.970 ,137,4.254 ,0.03 ,49.69 ,296.6 ,0.17 ,0.32 
